Aroma Park, IL

5:34 PM CST on February 05, 2016 (GMT -0600)
Greater Kankakee

Weather History for KIKK - April, 2014

Change the Weather History Date:

Monday, April 28, 2014

  Actual Average (KGYY) Record (KGYY)
Temperature  
Mean Temperature 51 °F -  
Max Temperature 58 °F 61 °F - (-1)
Min Temperature 45 °F 41 °F - (-1)
Degree Days  
Heating Degree Days 14    
Growing Degree Days 1 (Base 50)    
Moisture  
Dew Point 47 °F    
Average Humidity 86    
Maximum Humidity 97    
Minimum Humidity 70    
Precipitation  
Precipitation 0.09 in - - ()
Sea Level Pressure  
Sea Level Pressure 29.63 in    
Wind  
Wind Speed 17 mph (East)    
Max Wind Speed 32 mph    
Max Gust Speed 41 mph    
Visibility 9 miles    
Events Rain , Thunderstorm    
Averages and records for this station are not official NWS values.
T = Trace of Precipitation, MM = Missing Value Source: NWS Daily Summary

Daily Weather History Graph

Daily Weather History Graph

Search for Another Location

Airport or City:

Trip Planner

Search our weather history database for the weather conditions in past years. The results will help you decide how hot, cold, wet, or windy it might be!

Date:

Astronomy

Apr. 28, 2014 Rise Set
Actual Time 5:53 AM CDT 7:45 PM CDT
Civil Twilight 5:23 AM CDT 8:14 PM CDT
Nautical Twilight 4:47 AM CDT 8:51 PM CDT
Astronomical Twilight 4:08 AM CDT 9:30 PM CDT
Moon 5:31 AM CDT (4/28) 7:22 PM CDT (4/28)
Length of Visible Light 14h 51m
Length of Day
13h 51m
Waning Crescent, 0% of the Moon is Illuminated
Apr 28
Waning Crescent
Apr 29
New
May 6
First Quarter
May 14
Full
May 21
Last Quarter

Hourly Weather History & Observations

Time (CDT) Temp. Windchill Dew Point Humidity Pressure Visibility Wind Dir Wind Speed Gust Speed Precip Events Conditions
12:15 AM 48.9 °F - 41.4 °F 75% 29.83 in 7.0 mi East 16.1 mph 25.3 mph 0.02 in Rain Rain
12:35 AM 47.8 °F - 41.9 °F 80% 29.82 in 10.0 mi East 11.5 mph - 0.02 in Rain Rain
12:55 AM 47.5 °F - 41.7 °F 80% 29.81 in 10.0 mi East 16.1 mph - 0.03 in Rain Light Rain
1:15 AM 47.3 °F - 41.0 °F 79% 29.79 in 7.0 mi East 17.3 mph 25.3 mph 0.01 in Rain Light Rain
1:35 AM 47.3 °F - 40.1 °F 76% 29.78 in 10.0 mi East 18.4 mph 24.2 mph 0.02 in Rain Light Rain
1:55 AM 48.2 °F - 38.8 °F 70% 29.76 in 10.0 mi East 16.1 mph 26.5 mph 0.02 in   Overcast
2:15 AM 48.2 °F - 38.8 °F 70% 29.74 in 10.0 mi East 18.4 mph 27.6 mph N/A   Overcast
2:35 AM 48.2 °F - 39.0 °F 71% 29.74 in 10.0 mi East 17.3 mph 25.3 mph N/A   Overcast
2:55 AM 48.2 °F - 39.0 °F 71% 29.73 in 10.0 mi East 18.4 mph 21.9 mph N/A   Overcast
3:15 AM 47.1 °F - 40.1 °F 77% 29.72 in 10.0 mi East 16.1 mph 21.9 mph N/A   Overcast
3:35 AM 47.5 °F - 39.4 °F 73% 29.72 in 10.0 mi East 16.1 mph 23.0 mph N/A   Overcast
3:55 AM 47.5 °F - 39.9 °F 75% 29.71 in 10.0 mi East 13.8 mph 24.2 mph N/A   Overcast
4:15 AM 46.6 °F - 40.6 °F 80% 29.72 in 7.0 mi East 13.8 mph - N/A Rain Rain
4:35 AM 46.4 °F 40.1 °F 40.5 °F 80% 29.72 in 10.0 mi East 15.0 mph 23.0 mph N/A Rain Light Rain
4:55 AM 46.4 °F 39.2 °F 41.0 °F 81% 29.70 in 10.0 mi East 18.4 mph 23.0 mph N/A Rain Light Rain
5:15 AM 46.2 °F 38.5 °F 40.6 °F 81% 29.68 in 10.0 mi East 20.7 mph 27.6 mph N/A Rain Light Rain
5:35 AM 46.4 °F 38.7 °F 40.5 °F 80% 29.69 in 10.0 mi East 20.7 mph 27.6 mph N/A   Light Drizzle
5:55 AM 46.4 °F 39.5 °F 41.0 °F 81% 29.69 in 10.0 mi East 17.3 mph 27.6 mph N/A   Drizzle
6:15 AM 46.0 °F 39.0 °F 41.2 °F 83% 29.71 in 10.0 mi East 17.3 mph - 0.01 in Rain Rain
6:35 AM 45.9 °F 39.1 °F 42.1 °F 87% 29.71 in 10.0 mi East 16.1 mph 23.0 mph 0.02 in Rain Light Rain
6:55 AM 46.0 °F 38.8 °F 42.8 °F 88% 29.73 in 10.0 mi East 18.4 mph 23.0 mph 0.02 in Rain Light Rain
7:15 AM 46.0 °F 39.0 °F 43.3 °F 90% 29.73 in 10.0 mi East 17.3 mph 23.0 mph N/A Rain Light Rain
7:35 AM 46.6 °F - 43.9 °F 90% 29.72 in 7.0 mi East 17.3 mph - N/A   Drizzle
7:55 AM 46.8 °F - 44.6 °F 92% 29.71 in 7.0 mi East 20.7 mph - N/A Rain Light Rain
8:15 AM 46.6 °F - 44.6 °F 93% 29.66 in 10.0 mi East 20.7 mph 29.9 mph N/A   Overcast
8:35 AM 46.4 °F 38.1 °F 44.6 °F 93% 29.59 in 10.0 mi East 24.2 mph 33.4 mph N/A   Overcast
8:55 AM 47.3 °F - 45.0 °F 92% 29.57 in 10.0 mi East 26.5 mph 34.5 mph N/A   Mostly Cloudy
9:15 AM 48.2 °F - 45.5 °F 90% 29.52 in 10.0 mi East 32.2 mph 41.4 mph N/A   Overcast
9:35 AM 48.7 °F - 45.5 °F 89% 29.63 in 10.0 mi ESE 19.6 mph 27.6 mph N/A   Overcast
9:55 AM 49.3 °F - 46.0 °F 89% 29.63 in 10.0 mi East 20.7 mph 28.8 mph N/A   Overcast
10:15 AM 49.5 °F - 45.9 °F 87% 29.65 in 10.0 mi East 24.2 mph 31.1 mph N/A   Overcast
10:35 AM 50.0 °F - 46.4 °F 87% 29.65 in 10.0 mi East 23.0 mph 29.9 mph N/A   Overcast
10:55 AM 50.0 °F - 46.4 °F 87% 29.65 in 10.0 mi East 20.7 mph 27.6 mph N/A   Overcast
11:15 AM 50.4 °F - 46.6 °F 87% 29.65 in 10.0 mi East 21.9 mph 29.9 mph N/A   Overcast
11:35 AM 51.1 °F - 46.9 °F 86% 29.64 in 10.0 mi East 26.5 mph 29.9 mph N/A   Overcast
12:15 PM 52.2 °F - 48.2 °F 86% 29.63 in 10.0 mi East 23.0 mph 29.9 mph N/A   Overcast
12:35 PM 52.2 °F - 48.4 °F 87% 29.63 in 10.0 mi East 21.9 mph 31.1 mph N/A   Overcast
12:55 PM 53.6 °F - 49.1 °F 85% 29.64 in 10.0 mi East 23.0 mph 28.8 mph N/A   Overcast
1:15 PM 54.5 °F - 49.6 °F 84% 29.63 in 10.0 mi East 19.6 mph 24.2 mph N/A   Overcast
1:35 PM 55.4 °F - 50.0 °F 82% 29.62 in 10.0 mi East 23.0 mph 28.8 mph N/A   Overcast
1:55 PM 55.2 °F - 50.2 °F 83% 29.62 in 10.0 mi East 21.9 mph 26.5 mph N/A   Overcast
2:15 PM 56.3 °F - 50.9 °F 82% 29.62 in 10.0 mi East 21.9 mph 29.9 mph N/A   Overcast
2:35 PM 56.1 °F - 50.7 °F 82% 29.60 in 10.0 mi East 19.6 mph 27.6 mph N/A   Overcast
2:55 PM 56.5 °F - 51.3 °F 83% 29.59 in 10.0 mi East 16.1 mph 25.3 mph N/A   Overcast
3:15 PM 56.1 °F - 51.1 °F 83% 29.58 in 10.0 mi East 17.3 mph 25.3 mph N/A   Overcast
3:35 PM 56.3 °F - 51.4 °F 84% 29.57 in 10.0 mi East 23.0 mph 28.8 mph N/A   Overcast
4:15 PM 56.3 °F - 51.4 °F 84% 29.53 in 10.0 mi East 20.7 mph 24.2 mph N/A   Overcast
4:35 PM 56.3 °F - 51.6 °F 84% 29.54 in 10.0 mi ESE 15.0 mph 25.3 mph N/A   Overcast
4:55 PM 56.3 °F - 51.8 °F 85% 29.53 in 10.0 mi East 18.4 mph 23.0 mph N/A Thunderstorm Overcast
5:15 PM 57.2 °F - 52.2 °F 83% 29.53 in 10.0 mi East 20.7 mph 25.3 mph N/A   Overcast
5:35 PM 57.4 °F - 52.2 °F 83% 29.54 in 10.0 mi East 17.3 mph 26.5 mph N/A   Overcast
5:55 PM 57.6 °F - 52.7 °F 84% 29.54 in 10.0 mi East 17.3 mph 24.2 mph N/A   Overcast
6:15 PM 57.0 °F - 52.3 °F 84% 29.54 in 10.0 mi East 20.7 mph 25.3 mph N/A   Overcast
6:35 PM 56.3 °F - 52.0 °F 85% 29.53 in 10.0 mi East 21.9 mph 26.5 mph N/A   Overcast
6:55 PM 55.8 °F - 51.8 °F 87% 29.53 in 7.0 mi East 19.6 mph 26.5 mph N/A   Overcast
7:15 PM 54.9 °F - 51.4 °F 88% 29.52 in 7.0 mi East 17.3 mph 23.0 mph N/A   Mostly Cloudy
7:35 PM 54.3 °F - 51.1 °F 89% 29.53 in 7.0 mi East 15.0 mph 20.7 mph N/A Thunderstorm Mostly Cloudy
7:55 PM 53.8 °F - 51.1 °F 91% 29.52 in 7.0 mi East 16.1 mph 21.9 mph N/A Thunderstorm Mostly Cloudy
8:15 PM 53.6 °F - 50.9 °F 91% 29.52 in 7.0 mi East 17.3 mph 23.0 mph N/A Rain , Thunderstorm Light Thunderstorms and Rain
8:35 PM 53.8 °F - 51.8 °F 93% 29.58 in 2.5 mi WNW 11.5 mph 18.4 mph 0.02 in Rain , Thunderstorm Heavy Thunderstorms and Rain
8:55 PM 52.7 °F - 51.8 °F 97% 29.59 in 4.0 mi North 3.5 mph - 0.02 in Rain , Thunderstorm Rain
9:15 PM 52.7 °F - 51.8 °F 97% 29.59 in 4.0 mi NNE 4.6 mph - N/A Rain , Thunderstorm Light Thunderstorms and Rain
9:35 PM 53.6 °F - 51.8 °F 94% 29.58 in 5.0 mi NNE 6.9 mph - N/A Rain , Thunderstorm Rain
9:55 PM 52.3 °F - 51.3 °F 96% 29.57 in 5.0 mi NE 9.2 mph - N/A Rain Light Rain
10:15 PM 52.5 °F - 51.4 °F 96% 29.57 in 5.0 mi ENE 10.4 mph 17.3 mph N/A   Overcast
10:35 PM 52.7 °F - 51.8 °F 97% 29.56 in 5.0 mi ENE 11.5 mph 17.3 mph N/A   Drizzle
10:55 PM 52.9 °F - 52.0 °F 97% 29.57 in 4.0 mi East 12.7 mph - N/A Rain Light Rain
11:15 PM 52.9 °F - 52.2 °F 97% 29.56 in 4.0 mi East 9.2 mph - N/A Rain Light Rain
11:35 PM 52.9 °F - 52.0 °F 97% 29.57 in 5.0 mi ESE 11.5 mph - N/A Rain Light Rain
11:55 PM 52.3 °F - 51.4 °F 97% 29.55 in 3.0 mi East 8.1 mph - N/A Rain Rain